{"data":{"norad_id":65186,"intl_designator":"2025-175N","name":"STARLINK-34965","alt_names":[],"object_type":"PAYLOAD","status":"ACTIVE","operator":null,"country":"US","launch_date":"2025-08-14","launch_site_code":"AFWTR","launch_vehicle":null,"mission":null,"orbit_class":"UNKNOWN","rcs_meters":null,"size_class":null,"mass_kg":null,"dimensions":null,"purposes":["comms"],"wikipedia_slug":null,"has_3d_model":false,"image_url":null,"decayed_at":null,"tle_current":{"epoch":"2026-05-25T03:14:00.792096Z","epoch_age_seconds":63141,"freshness":"FRESH","line1":"1 65186U 25175N   26145.13473139  .00003171  00000+0  22363-3 0  9995","line2":"2 65186  97.4490  17.6376 0002518  76.3775 283.7732 15.05665058 44148","mean_motion":15.05665058,"eccentricity":0.0002518,"inclination_deg":97.449,"raan_deg":17.6376,"arg_perigee_deg":76.3775,"mean_anomaly_deg":283.7732,"bstar":0.00022363,"rev_number":4414,"period_min":95.638800432334,"perigee_km":547.72059532701,"apogee_km":551.20933567684,"semimajor_km":6927.6019655019,"source":"CELESTRAK","updated_at":"2026-05-25T13:38:20.714161Z"}}}